Tracking 18647 objects as of 28-May-2017
HD Live streaming from Space Station
objects crossing your sky now

COSMOS 2209

Track COSMOS 2209 now!
COSMOS 2209 is classified as:


NORAD ID: 22112
Int'l Code: 1992-059A
Perigee: 35,750.1 km
Apogee: 35,838.6 km
Inclination: 15.0 °
Period: 1,436.1 minutes
Semi major axis: 42165 km
RCS: 5.0119 m2 (large)
Launch date: September 10, 1992
Source: Commonwealth of Independent States (former USSR) (CIS)
Launch site: TYURATAM MISSILE AND SPACE COMPLEX (TTMTR)
Your satellite tracking list
Your tracking list is empty





NASA's NSSDC Master Catalog

Two Line Element Set (TLE):
1 22112U 92059A   17147.29146993 -.00000210 +00000-0 +00000-0 0  9990
2 22112 015.0243 011.4299 0010495 232.3311 083.2806 01.00269595090446
Source of the keplerian elements: AFSPC